Springfield, OH

5:12 AM EDT on May 23, 2017 (GMT -0400)
Springfield-Beckley Municipal

Weather History for KSGH - March, 2013

Change the Weather History Date:

Wednesday, March 6, 2013

  Actual Average (KFFO) Record (KFFO)
Temperature  
Mean Temperature 29 °F -  
Max Temperature 31 °F 43 °F 64 °F (2009)
Min Temperature 27 °F 24 °F 5 °F (2015)
Degree Days  
Heating Degree Days 36    
Moisture  
Dew Point 25 °F    
Average Humidity 87    
Maximum Humidity 96    
Minimum Humidity 79    
Precipitation  
Precipitation 0.11 in - - ()
Sea Level Pressure  
Sea Level Pressure 29.94 in    
Wind  
Wind Speed 13 mph (NNW)    
Max Wind Speed 20 mph    
Max Gust Speed -    
Visibility 3 miles    
Events Fog , Snow    
Averages and records for this station are not official NWS values.
T = Trace of Precipitation, MM = Missing Value Source: NWS Daily Summary

Daily Weather History Graph

Daily Weather History Graph

Search for Another Location

Airport or City:

Trip Planner

Search our weather history database for the weather conditions in past years. The results will help you decide how hot, cold, wet, or windy it might be!

Date:

Astronomy

Mar. 06, 2013 Rise Set
Actual Time 7:00 AM EST 6:33 PM EST
Civil Twilight 6:33 AM EST 7:00 PM EST
Nautical Twilight 6:02 AM EST 7:31 PM EST
Astronomical Twilight 5:31 AM EST 8:02 PM EST
Moon 3:08 AM EST (3/6) 1:14 PM EST (3/6)
Length of Visible Light 12h 26m
Length of Day
11h 32m
Waning Crescent, 30% of the Moon is Illuminated
Mar 6
Waning Crescent
Mar 11
New
Mar 19
First Quarter
Mar 27
Full
Apr 3
Last Quarter

Hourly Weather History & Observations

Time (EST) Temp. Windchill Dew Point Humidity Pressure Visibility Wind Dir Wind Speed Gust Speed Precip Events Conditions
1:29 AM 28.4 °F 19.1 °F 26.6 °F 93% 29.61 in 1.0 mi NNW 10.4 mph - N/A Snow Light Snow
1:44 AM 28.4 °F 18.0 °F 26.6 °F 93% 29.61 in 0.8 mi North 12.7 mph - N/A Snow Light Snow
1:56 AM 28.0 °F 17.5 °F 27.1 °F 96% 29.65 in 0.8 mi North 12.7 mph - N/A Snow Light Snow
2:38 AM 28.4 °F 18.0 °F 26.6 °F 93% 29.63 in 0.5 mi NNW 12.7 mph - 0.02 in Fog , Snow Light Snow
2:48 AM 28.4 °F 18.0 °F 26.6 °F 93% 29.64 in 0.5 mi NNW 12.7 mph - 0.02 in Fog , Snow Light Snow
2:56 AM 28.0 °F 17.5 °F 26.1 °F 92% 29.67 in 0.5 mi NNW 12.7 mph - 0.02 in Fog , Snow Light Snow
3:47 AM 28.4 °F 16.6 °F 26.6 °F 93% 29.66 in 0.8 mi North 16.1 mph - 0.00 in Snow Light Snow
3:56 AM 28.0 °F 16.5 °F 26.1 °F 92% 29.70 in 0.8 mi North 15.0 mph - 0.00 in Snow Light Snow
4:28 AM 28.4 °F 17.0 °F 26.6 °F 93% 29.68 in 0.8 mi North 15.0 mph - 0.01 in Snow Light Snow
4:36 AM 28.4 °F 16.2 °F 26.6 °F 93% 29.69 in 0.8 mi North 17.3 mph - 0.01 in Snow Light Snow
4:56 AM 28.0 °F 14.9 °F 26.1 °F 92% 29.73 in 0.8 mi North 19.6 mph - 0.01 in Snow Light Snow
5:29 AM 28.4 °F 15.8 °F 26.6 °F 93% 29.73 in 1.0 mi North 18.4 mph - 0.00 in Snow Light Snow
5:43 AM 28.4 °F 16.2 °F 24.8 °F 86% 29.75 in 1.5 mi North 17.3 mph - 0.00 in Snow Light Snow
5:56 AM 28.0 °F 15.7 °F 25.2 °F 89% 29.79 in 4.0 mi North 17.3 mph - 0.00 in   Overcast
6:56 AM 28.0 °F 15.7 °F 25.2 °F 89% 29.85 in 6.0 mi North 17.3 mph - 0.00 in   Overcast
7:56 AM 28.0 °F 16.1 °F 25.2 °F 89% 29.91 in 4.0 mi North 16.1 mph - N/A   Overcast
8:56 AM 28.0 °F 16.1 °F 25.2 °F 89% 29.97 in 4.0 mi NNW 16.1 mph - N/A   Overcast
9:56 AM 27.1 °F 15.4 °F 24.1 °F 88% 30.02 in 4.0 mi NNW 15.0 mph - N/A   Overcast
10:56 AM 28.0 °F 17.0 °F 24.1 °F 85% 30.06 in 4.0 mi NNW 13.8 mph - N/A   Overcast
11:56 AM 29.1 °F 18.4 °F 25.2 °F 85% 30.09 in 4.0 mi NNW 13.8 mph - N/A   Overcast
12:24 PM 28.4 °F 18.0 °F 24.8 °F 86% 30.07 in 4.0 mi NNW 12.7 mph - 0.00 in   Overcast
12:56 PM 29.1 °F 18.4 °F 25.2 °F 85% 30.12 in 4.0 mi NNW 13.8 mph - 0.01 in   Overcast
1:56 PM 30.0 °F 20.0 °F 25.2 °F 82% 30.13 in 4.0 mi NW 12.7 mph - 0.02 in   Haze
2:56 PM 31.1 °F 21.4 °F 25.2 °F 79% 30.14 in 5.0 mi NNW 12.7 mph - 0.03 in   Haze
3:30 PM 30.2 °F 21.3 °F 24.8 °F 80% 30.12 in 5.0 mi NW 10.4 mph - 0.01 in   Haze
3:56 PM 31.1 °F 22.4 °F 25.2 °F 79% 30.16 in 5.0 mi NW 10.4 mph - 0.01 in   Haze
4:56 PM 30.0 °F 21.7 °F 25.2 °F 82% 30.18 in 5.0 mi NW 9.2 mph - N/A   Haze
5:56 PM 30.0 °F 20.0 °F 25.2 °F 82% 30.21 in 5.0 mi WNW 12.7 mph - N/A   Haze
6:56 PM 29.1 °F 22.1 °F 24.1 °F 81% 30.24 in 5.0 mi WNW 6.9 mph - 0.01 in   Haze
7:56 PM 29.1 °F 22.1 °F 24.1 °F 81% 30.25 in 5.0 mi NW 6.9 mph - N/A   Haze
8:56 PM 29.1 °F 20.0 °F 24.1 °F 81% 30.25 in 5.0 mi West 10.4 mph - N/A   Haze
9:56 PM 29.1 °F 23.0 °F 24.1 °F 81% 30.26 in 5.0 mi NW 5.8 mph - N/A   Haze
10:56 PM 28.0 °F 20.8 °F 24.1 °F 85% 30.27 in 5.0 mi WNW 6.9 mph - N/A   Mostly Cloudy
11:56 PM 28.0 °F 22.8 °F 24.1 °F 85% 30.26 in 5.0 mi WNW 4.6 mph - N/A   Overcast